Find Kosmos-411

NORAD ID: 5210 Int'l Des: 1971-041 Owner: OKB10 Country: SU operational
LEO

Live Position

Loading 3D Globe...

About Kosmos-411

Description loading...

Upcoming Passes

Passes for default location (London). Set your location on the main map for personalized predictions.

Altitude History

Loading altitude history...

Two-Line Element Set

1 05210U 71041A 26105.49390649 -.00000004 00000-0 60293-4 0 9998
2 05210 74.0187 8.1524 0111370 83.9557 88.6268 12.64997800536937
Epoch: Apr 15, 2026 • Age: 12 hours

Current Status

Altitude 1361.8 km
Velocity 7.20 km/s
Sub-Earth Point 21.25°N, 164.36°E
Type other

Most Searched